EW9655 Weather Reports


time (UTC)temp
F
wind
direction
speed
knots
gust
knots
rain 1hr
in
rain 24hr
in
rain mn
in
humidity
%
barometer
mb
20190326181215 44 355 0.0 0.0 0.00 0.00 0.00 35 1036.3
20190326180715 45 355 0.0 0.0 0.00 0.00 0.00 35 1036.3
20190326180215 45 355 0.0 0.0 0.00 0.00 0.00 35 1036.2
20190326175715 45 355 0.0 0.0 0.00 0.00 0.00 35 1036.3
20190326175215 45 355 0.0 0.0 0.00 0.00 0.00 35 1036.3
20190326174716 45 344 0.0 0.0 0.00 0.00 0.00 35 1036.3
20190326174215 45 33 0.0 0.0 0.00 0.00 0.00 35 1036.3
20190326173715 45 33 0.0 0.0 0.00 0.00 0.00 35 1036.3
20190326173215 45 59 0.0 0.0 0.00 0.00 0.00 35 1036.2
20190326172715 45 59 0.0 1.7 0.00 0.00 0.00 35 1036.2
20190326172215 45 59 0.0 1.7 0.00 0.00 0.00 35 1036.2
20190326171715 45 58 0.0 1.7 0.00 0.00 0.00 35 1036.1
20190326171215 45 32 0.0 0.9 0.00 0.00 0.00 35 1036.1
20190326170715 45 32 0.0 1.7 0.00 0.00 0.00 35 1036.1
20190326170216 45 32 0.0 1.7 0.00 0.00 0.00 35 1036.1
20190326165715 46 32 0.0 1.7 0.00 0.00 0.00 35 1036.0
20190326165215 46 302 0.0 3.5 0.00 0.00 0.00 35 1035.9
20190326164716 46 296 0.0 3.5 0.00 0.00 0.00 35 1036.0
20190326164215 46 342 0.0 3.5 0.00 0.00 0.00 35 1035.8
20190326163715 46 340 0.0 0.9 0.00 0.00 0.00 35 1035.8
20190326163215 46 52 0.0 0.9 0.00 0.00 0.00 35 1035.8
20190326162716 46 53 0.0 1.7 0.00 0.00 0.00 35 1035.8
20190326162215 46 281 0.0 1.7 0.00 0.00 0.00 35 1035.9
20190326161716 46 224 0.0 1.7 0.00 0.00 0.00 35 1035.9
20190326161214 46 232 0.0 0.0 0.00 0.00 0.00 35 1036.0
20190326160716 46 355 0.0 1.7 0.00 0.00 0.00 35 1036.0
20190326160215 46 11 0.0 4.3 0.00 0.00 0.00 35 1035.9
20190326155715 46 312 0.0 4.3 0.00 0.00 0.00 35 1036.0
20190326155215 46 22 0.0 4.3 0.00 0.00 0.00 35 1035.9
20190326154715 47 30 0.0 3.5 0.00 0.00 0.00 35 1035.9
20190326154216 47 13 0.0 3.5 0.00 0.00 0.00 35 1035.8
20190326153715 47 60 0.0 3.5 0.00 0.00 0.00 35 1035.8
20190326153216 47 276 0.0 5.2 0.00 0.01 0.00 35 1035.9
20190326152715 47 104 0.0 5.2 0.00 0.01 0.00 35 1035.8
20190326152215 47 33 0.0 5.2 0.00 0.01 0.00 35 1035.9
20190326151715 47 10 0.0 4.3 0.00 0.01 0.00 35 1035.9
20190326151215 47 355 0.0 4.3 0.00 0.01 0.00 35 1035.9
20190326150715 47 5 0.0 3.5 0.00 0.01 0.00 35 1035.8
20190326150216 47 322 0.0 6.1 0.00 0.01 0.00 35 1035.9
20190326145715 48 19 0.0 6.1 0.00 0.01 0.00 35 1035.9
20190326145215 48 24 0.9 6.1 0.00 0.01 0.00 35 1035.9
20190326144716 48 268 0.0 7.0 0.00 0.01 0.00 35 1035.8
20190326144215 49 227 0.0 7.0 0.00 0.01 0.00 35 1035.8
20190326143715 49 278 0.0 7.0 0.00 0.02 0.00 35 1035.8
20190326143216 49 317 0.0 6.1 0.00 0.02 0.00 36 1035.8
20190326142715 49 5 0.0 6.1 0.00 0.02 0.00 36 1035.8
20190326142216 49 280 0.0 7.0 0.00 0.02 0.00 36 1035.8
20190326141715 49 231 0.0 7.0 0.00 0.02 0.00 36 1035.8
20190326141215 48 245 0.0 7.0 0.00 0.02 0.00 36 1035.8
20190326140716 48 220 0.0 3.5 0.00 0.02 0.00 36 1035.9
20190326140216 47 269 0.0 3.5 0.00 0.03 0.00 36 1035.9
20190326135715 48 216 0.0 3.5 0.00 0.04 0.00 36 1036.0
20190326135216 48 331 0.0 0.9 0.00 0.05 0.00 36 1036.1
20190326134715 48 0 0.0 0.0 0.00 0.06 0.00 36 1036.0
20190326134216 48 238 0.0 0.0 0.00 0.06 0.00 36 1036.0
20190326133715 47 223 0.0 1.7 0.00 0.06 0.00 36 1036.0
20190326133215 47 111 0.0 1.7 0.00 0.06 0.00 36 1036.1
20190326132715 47 113 0.0 1.7 0.00 0.06 0.00 36 1036.2
20190326132215 47 187 0.0 1.7 0.00 0.06 0.00 36 1036.2
20190326131716 47 29 0.0 1.7 0.00 0.06 0.00 37 1036.2
20190326131215 47 5 0.0 6.1 0.00 0.06 0.00 37 1036.1
20190326130716 47 233 0.0 6.1 0.00 0.06 0.00 37 1036.2
20190326130215 48 149 0.0 6.1 0.00 0.06 0.00 37 1036.2
20190326125716 48 300 0.0 6.1 0.00 0.06 0.00 37 1036.2
20190326125215 48 235 0.0 9.6 0.00 0.06 0.00 37 1036.3
20190326124715 48 232 1.7 9.6 0.00 0.06 0.00 37 1036.3
20190326124215 48 282 1.7 9.6 0.00 0.06 0.00 37 1036.3
20190326123715 48 238 0.0 3.5 0.00 0.06 0.00 37 1036.3
20190326123215 48 253 0.0 5.2 0.00 0.06 0.00 38 1036.2
20190326122716 48 129 0.0 6.1 0.00 0.06 0.00 38 1036.3
20190326122216 48 45 0.9 7.0 0.00 0.06 0.00 38 1036.3
20190326121715 48 327 0.9 7.0 0.00 0.07 0.00 38 1036.3
20190326121215 48 347 0.9 7.8 0.00 0.08 0.00 39 1036.3
20190326120716 48 252 0.9 7.8 0.00 0.08 0.00 39 1036.3
20190326120215 48 274 1.7 7.8 0.00 0.08 0.00 40 1036.3
20190326115715 48 265 0.9 7.0 0.00 0.08 0.00 40 1036.4
20190326115215 48 253 0.0 7.0 0.00 0.08 0.00 40 1036.4
20190326114715 48 61 0.9 7.0 0.00 0.08 0.00 40 1036.5
20190326114215 49 57 0.9 7.0 0.00 0.08 0.00 40 1036.5
20190326113716 49 240 0.9 7.0 0.00 0.08 0.00 41 1036.6
20190326113216 48 355 0.9 7.0 0.00 0.08 0.00 41 1036.5
20190326112716 48 290 0.0 7.0 0.00 0.08 0.00 41 1036.6
20190326112215 48 268 0.0 7.0 0.00 0.09 0.00 41 1036.6
20190326111716 47 273 0.0 7.0 0.00 0.09 0.00 42 1036.7
20190326111215 46 262 0.0 8.7 0.00 0.09 0.00 42 1036.8
20190326110716 46 250 0.0 8.7 0.00 0.09 0.00 42 1036.8
20190326110215 47 82 0.0 8.7 0.00 0.09 0.00 42 1036.9
20190326105715 47 246 0.0 10.4 0.00 0.09 0.00 43 1036.9
20190326105215 46 15 0.9 10.4 0.00 0.09 0.00 43 1036.9
20190326104717 46 16 0.9 10.4 0.00 0.09 0.00 43 1036.8
20190326104215 46 265 0.9 8.7 0.00 0.09 0.00 43 1036.8
20190326103715 46 284 0.0 8.7 0.00 0.09 0.00 43 1036.8
20190326103215 47 213 0.0 4.3 0.00 0.09 0.00 43 1036.8
20190326102715 46 220 0.0 8.7 0.00 0.09 0.00 42 1036.8
20190326102216 46 306 0.0 8.7 0.00 0.09 0.00 41 1036.8
20190326101715 45 55 0.9 8.7 0.00 0.09 0.00 41 1036.9
20190326101215 45 217 1.7 10.4 0.00 0.09 0.00 40 1036.9
20190326100716 44 0 1.7 10.4 0.00 0.09 0.00 40 1036.9
20190326100215 45 62 1.7 10.4 0.00 0.09 0.00 39 1036.9
20190326095715 45 355 0.9 7.0 0.00 0.09 0.00 39 1037.0
20190326095215 45 65 0.0 7.0 0.00 0.09 0.00 39 1037.0
20190326094715 44 317 0.9 7.0 0.00 0.09 0.00 36 1037.1
20190326094215 44 229 0.9 7.8 0.00 0.09 0.00 33 1037.1
20190326093716 44 277 1.7 7.8 0.00 0.09 0.00 31 1037.2
20190326093215 45 239 0.9 7.8 0.00 0.09 0.00 31 1037.1
20190326092715 45 315 0.9 7.0 0.00 0.09 0.00 30 1037.1
20190326092216 44 57 1.7 9.6 0.00 0.09 0.00 30 1037.1
20190326091715 44 68 1.7 9.6 0.00 0.09 0.00 30 1037.1
20190326091216 43 78 2.6 9.6 0.00 0.09 0.00 31 1037.1
20190326090716 44 16 1.7 7.8 0.00 0.09 0.00 32 1037.1
20190326090215 43 19 0.9 7.0 0.00 0.09 0.00 33 1037.1
20190326085715 42 47 0.9 7.0 0.00 0.09 0.00 34 1037.1
20190326085216 42 235 0.9 7.0 0.00 0.09 0.00 34 1037.2
20190326084715 42 223 0.9 7.8 0.00 0.09 0.00 34 1037.1
20190326084215 42 252 0.9 7.8 0.00 0.09 0.00 34 1037.1
20190326083715 42 214 0.9 7.8 0.00 0.09 0.00 34 1037.1
20190326083215 42 169 0.0 2.6 0.00 0.09 0.00 34 1037.1
20190326082715 42 184 0.0 7.0 0.00 0.09 0.00 34 1037.0
20190326082215 42 206 0.0 7.0 0.00 0.09 0.00 34 1037.0
20190326081716 42 250 0.0 7.0 0.00 0.09 0.00 34 1036.9
20190326081215 42 313 0.0 7.0 0.00 0.09 0.00 34 1036.9
20190326080715 41 292 0.0 3.5 0.00 0.09 0.00 34 1036.9
20190326080215 41 246 0.0 4.3 0.00 0.09 0.00 34 1036.9
20190326075715 41 240 0.9 4.3 0.00 0.09 0.00 34 1036.9
20190326075215 41 222 0.9 4.3 0.00 0.09 0.00 34 1036.9
20190326074716 41 40 0.0 2.6 0.00 0.09 0.00 34 1036.8
20190326074215 41 39 0.0 2.6 0.00 0.09 0.00 34 1036.7
20190326073715 41 79 0.0 1.7 0.00 0.09 0.00 34 1036.6
20190326073215 41 260 0.0 0.0 0.00 0.09 0.00 34 1036.5
20190326072716 41 240 0.0 0.0 0.00 0.09 0.00 34 1036.5
20190326072216 40 240 0.0 2.6 0.00 0.09 0.00 34 1036.5
20190326071716 40 240 0.0 2.6 0.00 0.09 0.00 34 1036.5
20190326071215 40 238 0.0 2.6 0.00 0.09 0.00 34 1036.5
20190326070715 40 294 0.0 0.9 0.00 0.09 0.00 34 1036.5
20190326070215 40 338 0.0 0.0 0.00 0.09 0.00 34 1036.4
20190326065715 40 338 0.0 0.0 0.00 0.09 0.00 34 1036.4
20190326065215 40 338 0.0 0.0 0.00 0.09 0.00 34 1036.5
20190326064716 40 338 0.0 0.0 0.00 0.09 0.00 34 1036.3
20190326064215 40 338 0.0 0.0 0.00 0.09 0.00 34 1036.2
20190326063715 40 338 0.0 0.0 0.00 0.09 0.00 34 1036.2
20190326063215 40 338 0.0 0.0 0.00 0.09 0.00 34 1036.2
20190326062716 40 338 0.0 0.0 0.00 0.09 0.00 34 1036.3
20190326062215 40 338 0.0 0.0 0.00 0.09 0.00 34 1036.3
20190326061716 40 338 0.0 0.0 0.00 0.09 0.00 34 1036.3
20190326061215 40 338 0.0 0.0 0.00 0.09 0.00 34 1036.3
20190326060715 40 338 0.0 0.0 0.00 0.09 0.00 34 1036.3
20190326060215 40 338 0.0 0.0 0.00 0.09 0.00 34 1036.3
20190326055715 40 338 0.0 0.0 0.00 0.09 0.00 35 1036.3
20190326055215 40 338 0.0 0.0 0.00 0.09 0.00 35 1036.4
20190326054716 40 338 0.0 1.7 0.00 0.09 0.00 35 1036.2
20190326054215 40 338 0.0 1.7 0.00 0.09 0.00 35 1036.2
20190326053715 40 338 0.0 1.7 0.00 0.09 0.00 35 1036.2
20190326053215 40 35 0.0 0.0 0.00 0.09 0.00 35 1036.2
20190326052715 40 35 0.0 0.0 0.00 0.09 0.00 35 1036.2
20190326052216 40 35 0.0 2.6 0.00 0.09 0.00 35 1036.1
20190326051716 40 35 0.0 4.3 0.00 0.09 0.00 35 1036.0
20190326051215 40 35 0.0 4.3 0.00 0.09 0.00 35 1036.0
20190326050715 40 52 0.9 5.2 0.00 0.09 0.00 35 1036.0
20190326050216 40 63 0.9 5.2 0.00 0.09 0.00 35 1036.1
20190326045715 40 64 1.7 7.8 0.00 0.09 0.00 35 1036.1
20190326045215 40 66 0.9 7.8 0.00 0.09 0.00 35 1036.0
20190326044715 40 71 1.7 7.8 0.00 0.09 0.00 35 1036.1
20190326044215 40 63 0.9 3.5 0.00 0.09 0.00 35 1036.1
20190326043715 40 57 0.0 2.6 0.00 0.09 0.00 35 1036.1
20190326043216 40 80 0.0 2.6 0.00 0.09 0.00 35 1036.1
20190326042715 40 333 0.0 2.6 0.00 0.09 0.00 35 1036.2
20190326042216 40 58 0.0 2.6 0.00 0.09 0.00 35 1036.1
20190326041715 40 44 0.0 1.7 0.00 0.09 0.00 35 1036.2
20190326041215 40 44 0.0 1.7 0.00 0.09 0.00 35 1036.1
20190326040716 40 25 0.0 0.9 0.00 0.09 0.00 35 1035.9
20190326040216 40 24 0.0 0.0 0.00 0.09 0.00 35 1035.8
20190326035715 40 18 0.0 0.0 0.00 0.09 0.00 35 1035.8
20190326035215 40 32 0.0 0.0 0.00 0.09 0.00 35 1035.9
20190326034715 40 32 0.0 2.6 0.00 0.09 0.00 35 1035.7
20190326034216 40 59 0.0 2.6 0.00 0.09 0.00 35 1035.7
20190326033716 40 59 0.0 4.3 0.00 0.09 0.00 35 1035.8
20190326033215 40 43 0.9 4.3 0.00 0.09 0.00 35 1035.7
20190326032715 40 43 0.9 4.3 0.00 0.09 0.00 35 1035.7
20190326032215 40 41 0.0 6.1 0.00 0.09 0.00 35 1035.7
20190326031715 40 51 0.9 6.1 0.00 0.09 0.00 35 1035.8
20190326031215 40 38 0.9 7.8 0.00 0.09 0.00 35 1035.7
20190326030715 41 51 0.9 7.8 0.00 0.09 0.00 35 1035.6
20190326030216 41 101 0.9 7.8 0.00 0.09 0.00 35 1035.7
20190326025717 41 60 1.7 7.8 0.00 0.09 0.00 35 1035.6
20190326025215 41 28 1.7 7.8 0.00 0.09 0.00 35 1035.5
20190326024715 41 75 0.9 5.2 0.00 0.09 0.00 35 1035.5
20190326024216 41 283 0.0 3.5 0.00 0.09 0.00 35 1035.5
20190326023715 41 282 0.0 3.5 0.00 0.09 0.00 35 1035.5
20190326023215 41 282 0.9 6.1 0.00 0.09 0.00 35 1035.5
20190326022715 41 49 0.9 6.1 0.00 0.09 0.00 36 1035.4
20190326022215 41 67 0.9 7.8 0.00 0.09 0.00 36 1035.4
20190326021716 41 59 0.9 7.8 0.00 0.09 0.00 36 1035.4
20190326021215 41 11 0.9 7.8 0.00 0.09 0.00 36 1035.4
20190326020715 41 73 0.0 0.0 0.00 0.09 0.00 36 1035.5
20190326020215 40 280 0.0 0.9 0.00 0.09 0.00 36 1035.5
20190326015715 40 280 0.0 1.7 0.00 0.09 0.00 36 1035.5
20190326015215 40 257 0.0 1.7 0.00 0.09 0.00 36 1035.5
20190326014715 40 298 0.0 1.7 0.00 0.09 0.00 36 1035.5
20190326014215 40 40 0.0 1.7 0.00 0.09 0.00 36 1035.5
20190326013715 40 259 0.0 1.7 0.00 0.09 0.00 36 1035.5
20190326013215 40 259 0.0 1.7 0.00 0.09 0.00 36 1035.5
20190326012716 40 259 0.0 1.7 0.00 0.09 0.00 36 1035.4
20190326012215 40 231 0.0 1.7 0.00 0.09 0.00 36 1035.4
20190326011715 40 232 0.0 0.0 0.00 0.09 0.00 36 1035.3
20190326011215 40 232 0.0 0.0 0.00 0.09 0.00 36 1035.3
20190326010716 40 232 0.0 0.0 0.00 0.09 0.00 36 1035.2
20190326010215 40 5 0.0 0.9 0.00 0.09 0.00 36 1035.2
20190326005716 40 5 0.0 0.9 0.00 0.09 0.00 36 1035.2
20190326005215 40 307 0.0 5.2 0.00 0.09 0.00 36 1035.2
20190326004715 40 336 0.0 5.2 0.00 0.09 0.00 36 1035.1
20190326004215 40 336 0.0 5.2 0.00 0.09 0.00 36 1035.1
20190326003715 40 273 0.0 3.5 0.00 0.09 0.00 36 1035.1
20190326003215 40 54 0.0 3.5 0.00 0.09 0.00 36 1035.0
20190326002715 40 51 0.0 3.5 0.00 0.09 0.00 36 1035.0
20190326002215 40 355 0.0 3.5 0.00 0.09 0.00 36 1035.1
20190326001716 40 57 0.0 1.7 0.00 0.09 0.00 36 1035.0
20190326001215 40 340 0.0 0.0 0.00 0.09 0.00 36 1035.0
20190326000716 40 340 0.0 0.0 0.00 0.09 0.00 36 1035.0
20190326000216 40 340 0.0 0.0 0.00 0.09 0.00 36 1035.0
20190325235716 40 119 0.0 0.0 0.00 0.09 0.00 36 1035.0
20190325235215 40 126 0.0 0.9 0.00 0.09 0.00 36 1034.8
20190325234715 40 126 0.0 0.9 0.00 0.09 0.00 36 1034.8
20190325234215 41 146 0.0 0.9 0.00 0.09 0.00 36 1034.8
20190325233716 40 174 0.0 6.1 0.00 0.09 0.00 36 1034.7
20190325233215 40 46 0.0 6.1 0.00 0.09 0.00 36 1034.6
20190325232715 41 355 0.0 7.0 0.00 0.09 0.00 36 1034.5
20190325232215 41 0 0.0 7.8 0.00 0.09 0.00 36 1034.4
20190325231715 41 78 0.9 7.8 0.00 0.09 0.00 36 1034.3
20190325231215 41 248 0.9 7.8 0.00 0.09 0.00 36 1034.3
20190325230716 41 0 0.9 7.0 0.00 0.09 0.00 36 1034.2
20190325230215 41 211 0.0 8.7 0.00 0.09 0.09 35 1034.2
20190325225716 41 34 0.9 8.7 0.00 0.09 0.09 35 1034.3
20190325225215 41 0 0.9 8.7 0.00 0.09 0.09 35 1034.3
20190325224715 41 278 0.0 4.3 0.00 0.09 0.09 35 1034.3
20190325224216 41 277 0.0 7.8 0.00 0.09 0.09 35 1034.3
20190325223715 41 202 0.0 7.8 0.00 0.09 0.09 35 1034.2
20190325223215 40 221 0.0 7.8 0.00 0.09 0.09 35 1034.2
20190325222716 40 230 0.0 4.3 0.00 0.09 0.09 35 1034.1
20190325222216 40 215 0.0 4.3 0.00 0.09 0.09 35 1034.1
20190325221715 40 227 0.0 1.7 0.00 0.09 0.09 35 1033.9
20190325221215 41 270 0.0 0.9 0.00 0.09 0.09 35 1033.9
20190325220716 41 251 0.0 1.7 0.00 0.09 0.09 35 1033.9
20190325220215 41 254 0.0 1.7 0.00 0.09 0.09 35 1033.9
20190325215715 41 235 0.0 1.7 0.00 0.09 0.09 35 1033.8
20190325215215 41 212 0.0 7.0 0.00 0.09 0.09 35 1033.8
20190325214716 41 296 0.0 7.8 0.00 0.09 0.09 35 1033.8
20190325214215 41 255 0.9 7.8 0.00 0.09 0.09 35 1033.7
20190325213716 41 255 0.9 7.8 0.00 0.09 0.09 35 1033.6
20190325213215 41 283 0.0 3.5 0.00 0.09 0.09 35 1033.6
20190325212716 41 283 0.0 3.5 0.00 0.09 0.09 35 1033.6
20190325212216 42 298 0.0 3.5 0.00 0.09 0.09 35 1033.5
20190325211715 42 255 0.0 1.7 0.00 0.09 0.09 35 1033.5
20190325211215 42 200 0.0 3.5 0.00 0.09 0.09 35 1033.5
20190325210715 42 273 0.0 3.5 0.00 0.09 0.09 35 1033.5
20190325210216 42 223 0.0 3.5 0.00 0.09 0.09 35 1033.5
20190325205715 42 239 0.0 5.2 0.00 0.09 0.09 35 1033.4
20190325205215 42 236 0.0 5.2 0.00 0.09 0.09 35 1033.3
20190325204715 42 270 0.0 5.2 0.00 0.09 0.09 35 1033.2
20190325204215 42 284 0.9 5.2 0.00 0.09 0.09 35 1033.1
20190325203716 42 239 0.9 5.2 0.00 0.09 0.09 35 1033.0
20190325203215 42 259 0.9 7.0 0.00 0.09 0.09 35 1032.9
20190325202716 43 278 0.9 12.2 0.00 0.09 0.09 35 1032.7
20190325202215 43 220 0.9 12.2 0.00 0.09 0.09 35 1032.6
20190325201715 43 243 0.9 12.2 0.00 0.09 0.09 35 1032.5
20190325201216 43 278 0.9 9.6 0.00 0.09 0.09 35 1032.4
20190325200716 43 287 0.9 9.6 0.00 0.09 0.09 35 1032.4
20190325200215 43 244 0.9 7.8 0.00 0.09 0.09 35 1032.4
20190325195715 43 263 0.9 7.8 0.00 0.09 0.09 35 1032.4
20190325195216 43 244 0.9 7.8 0.00 0.09 0.09 35 1032.3
20190325194715 43 233 0.9 6.1 0.00 0.09 0.09 35 1032.3
20190325194216 43 229 0.0 6.1 0.00 0.09 0.09 35 1032.2
20190325193715 43 244 0.9 5.2 0.00 0.09 0.09 35 1032.0
20190325193215 43 214 0.9 7.8 0.00 0.09 0.09 35 1032.0
20190325192715 43 216 0.9 7.8 0.00 0.09 0.09 35 1031.9
20190325192215 43 219 0.9 8.7 0.00 0.09 0.09 35 1031.9
20190325191715 43 252 0.9 8.7 0.00 0.09 0.09 35 1031.8
20190325191216 43 246 0.9 8.7 0.00 0.09 0.09 35 1031.7
20190325190715 43 270 0.9 7.8 0.00 0.09 0.09 35 1031.7
20190325190216 43 232 0.9 8.7 0.00 0.09 0.09 35 1031.7
20190325185715 43 294 0.9 8.7 0.00 0.09 0.09 35 1031.7
20190325185216 43 285 0.9 8.7 0.00 0.09 0.09 35 1031.7
20190325184715 43 120 0.9 7.0 0.00 0.09 0.09 35 1031.6
20190325184215 43 238 0.9 7.0 0.00 0.09 0.09 35 1031.5
20190325183715 43 211 0.0 7.8 0.00 0.09 0.09 35 1031.6
20190325183215 43 297 0.9 12.2 0.00 0.09 0.09 35 1031.4
20190325182716 43 234 1.7 13.9 0.00 0.09 0.09 35 1031.3
20190325182215 43 260 2.6 13.9 0.00 0.09 0.09 35 1031.2
20190325181715 43 218 2.6 13.9 0.00 0.09 0.09 35 1031.0